EA7HQL-10 Weather Reports


time (UTC)temp
F
wind
direction
speed
knots
gust
knots
rain 1hr
in
rain 24hr
in
rain mn
in
humidity
%
barometer
mb
20260507042714 62 92 0.0 0.0 0.00 0.00 0.00 84 1008.0
20260507042244 62 104 0.0 0.0 0.00 0.00 0.00 84 1008.0
20260507041748 61 105 0.0 0.9 0.00 0.00 0.00 84 1008.1
20260507041259 62 90 0.0 0.9 0.00 0.00 0.00 84 1008.2
20260507040809 62 101 0.0 0.9 0.00 0.00 0.00 84 1008.0
20260507040324 61 91 0.0 0.9 0.00 0.00 0.00 84 1008.0
20260507035834 61 83 0.9 0.9 0.00 0.00 0.00 84 1008.2
20260507035414 61 69 0.0 0.0 0.00 0.00 0.00 85 1008.1
20260507034929 61 80 0.0 0.9 0.00 0.00 0.00 85 1007.9
20260507034529 61 94 0.0 0.0 0.00 0.00 0.00 85 1007.9
20260507034114 61 73 0.0 1.7 0.00 0.00 0.00 85 1007.9
20260507033659 61 63 0.9 1.7 0.00 0.00 0.00 85 1007.9
20260507033219 61 87 0.0 0.0 0.00 0.00 0.00 86 1008.1
20260507032814 61 82 0.0 0.0 0.00 0.00 0.00 86 1008.1
20260507032354 61 71 0.0 0.9 0.00 0.00 0.00 86 1008.1
20260507031914 61 97 0.0 0.9 0.00 0.00 0.00 86 1008.1
20260507031504 61 83 0.0 0.9 0.00 0.00 0.00 86 1007.9
20260507031054 61 81 0.0 0.0 0.00 0.00 0.00 87 1008.2
20260507030559 61 64 0.9 1.7 0.00 0.00 0.00 87 1008.1
20260507030159 61 77 0.0 1.7 0.00 0.00 0.00 87 1008.0
20260507025704 60 73 0.9 1.7 0.00 0.00 0.00 87 1008.5
20260507025234 60 92 0.0 0.9 0.00 0.00 0.00 87 1008.2
20260507024824 60 74 0.0 0.9 0.00 0.00 0.00 87 1008.2
20260507024419 60 54 0.9 1.7 0.00 0.00 0.00 87 1008.1
20260507023939 60 69 0.9 1.7 0.00 0.00 0.00 87 1008.3
20260507023444 60 90 0.0 1.7 0.00 0.00 0.00 87 1008.1
20260507023033 60 76 0.0 1.7 0.00 0.00 0.00 87 1008.2
20260507022604 60 90 0.0 1.7 0.00 0.00 0.00 87 1008.1
20260507022139 61 77 0.0 0.9 0.00 0.00 0.00 87 1007.9
20260507021739 60 99 0.0 1.7 0.00 0.00 0.00 87 1007.9
20260507021249 61 76 0.0 0.9 0.00 0.00 0.00 87 1008.1
20260507020753 61 42 0.9 1.7 0.00 0.00 0.00 87 1008.1
20260507020324 61 44 0.9 1.7 0.00 0.00 0.00 87 1008.1
20260507015844 61 62 0.9 1.7 0.00 0.00 0.00 86 1008.2
20260507015419 61 66 0.9 1.7 0.00 0.00 0.00 86 1008.1
20260507015004 61 62 0.0 0.0 0.00 0.00 0.00 87 1008.0
20260507014554 61 79 0.0 0.9 0.00 0.00 0.00 87 1008.2
20260507014146 61 95 0.0 1.7 0.00 0.00 0.00 87 1008.2
20260507013714 61 76 0.9 1.7 0.00 0.00 0.00 87 1008.0
20260507013249 61 85 0.9 1.7 0.00 0.00 0.00 87 1008.5
20260507012754 61 45 0.9 2.6 0.00 0.00 0.00 87 1008.3
20260507012325 61 89 0.0 1.7 0.00 0.00 0.00 88 1008.2
20260507011854 60 60 0.9 1.7 0.00 0.00 0.00 88 1008.2
20260507011454 60 27 1.7 2.6 0.00 0.00 0.00 88 1008.3
20260507011039 61 95 0.0 0.9 0.00 0.00 0.00 88 1008.5
20260507010634 61 69 0.0 2.6 0.00 0.00 0.00 88 1008.3
20260507010139 61 53 0.9 1.7 0.00 0.00 0.00 89 1008.6
20260507005850 60 59 0.0 1.7 0.00 0.00 0.00 89 1008.6
20260507005420 60 79 0.0 1.7 0.00 0.00 0.00 89 1008.6
20260507004953 60 66 0.0 1.7 0.00 0.00 0.00 89 1008.6
20260507004540 60 54 0.9 2.6 0.00 0.00 0.00 89 1008.6
20260507004106 60 97 0.0 1.7 0.00 0.00 0.00 89 1008.7
20260507003613 60 30 0.9 1.7 0.00 0.00 0.00 90 1008.8
20260507003120 61 85 0.9 2.6 0.00 0.00 0.00 90 1008.7
20260507002620 61 55 0.0 1.7 0.00 0.00 0.00 90 1008.8
20260507002208 61 38 0.9 1.7 0.00 0.00 0.00 90 1008.9
20260507001745 61 81 0.0 0.0 0.00 0.00 0.00 91 1008.9
20260507001253 61 80 0.9 1.7 0.00 0.00 0.00 91 1009.0
20260507000823 60 86 0.0 0.0 0.00 0.00 0.00 91 1008.8
20260507000350 60 86 0.0 0.0 0.00 0.00 0.00 91 1008.8
20260506235943 61 97 0.0 0.0 0.00 0.00 0.00 91 1008.9
20260506235525 61 83 0.0 0.0 0.00 0.00 0.00 91 1009.0
20260506235120 61 81 0.0 0.0 0.00 0.00 0.00 91 1008.9
20260506234640 61 84 0.0 0.0 0.00 0.00 0.00 92 1009.0
20260506234150 61 45 0.9 1.7 0.00 0.00 0.00 92 1009.0
20260506233650 61 83 0.0 0.9 0.00 0.00 0.00 92 1009.1
20260506233220 61 98 0.0 0.9 0.00 0.00 0.00 92 1009.2
20260506232725 61 100 0.9 1.7 0.00 0.00 0.00 92 1009.2
20260506232245 61 72 0.9 3.5 0.00 0.00 0.00 92 1009.2
20260506231753 61 71 0.0 0.9 0.00 0.00 0.00 92 1009.3
20260506231333 61 96 0.0 1.7 0.00 0.00 0.00 93 1009.3
20260506230850 61 59 0.9 1.7 0.00 0.00 0.00 93 1009.3
20260506230443 62 79 0.0 1.7 0.00 0.00 0.00 93 1009.3
20260506230010 62 47 1.7 2.6 0.00 0.00 0.00 93 1009.3
20260506225525 62 62 1.7 1.7 0.00 0.00 0.00 93 1009.3
20260506225038 62 68 0.0 1.7 0.00 0.00 0.00 93 1009.4
20260506224633 62 87 0.0 1.7 0.00 0.00 0.00 93 1009.3
20260506224225 62 11 0.0 2.6 0.00 0.00 0.00 93 1009.2
20260506223725 62 72 0.9 2.6 0.00 0.00 0.00 93 1009.2
20260506223305 62 84 0.9 1.7 0.00 0.00 0.00 92 1009.3
20260506222830 62 84 0.9 1.7 0.00 0.00 0.00 92 1009.1
20260506222331 62 83 0.0 0.9 0.00 0.00 0.00 92 1009.3
20260506221850 62 94 0.9 3.5 0.00 0.00 0.00 92 1009.2
20260506221416 62 96 0.0 1.7 0.00 0.00 0.00 92 1009.2
20260506221005 62 96 0.0 1.7 0.00 0.00 0.00 92 1009.0
20260506220550 62 86 0.0 1.7 0.00 0.00 0.00 92 1009.2
20260506220115 62 79 0.0 0.9 0.00 0.00 0.00 92 1009.2
20260506215638 62 108 0.0 1.7 0.00 0.00 0.00 92 1009.2
20260506215215 62 83 0.0 1.7 0.00 0.00 0.00 92 1009.1
20260506214743 62 85 0.0 1.7 0.00 0.00 0.00 92 1009.1
20260506214338 62 86 0.0 2.6 0.00 0.00 0.00 91 1008.9
20260506213908 62 60 0.0 1.7 0.00 0.00 0.00 91 1009.1
20260506213500 62 108 0.9 1.7 0.00 0.00 0.00 91 1009.0
20260506213015 62 88 0.0 1.7 0.00 0.00 0.00 91 1009.2
20260506212545 63 83 0.9 2.6 0.00 0.00 0.00 91 1009.2
20260506212125 63 97 0.0 1.7 0.00 0.00 0.00 91 1009.0
20260506211705 62 96 0.9 1.7 0.00 0.00 0.00 91 1009.1
20260506211205 62 92 0.9 0.9 0.00 0.00 0.00 90 1009.0
20260506210710 62 99 0.0 0.9 0.00 0.00 0.00 90 1008.9
20260506210255 62 101 0.0 0.0 0.00 0.00 0.00 90 1009.0
20260506205830 62 103 0.0 0.0 0.00 0.00 0.00 90 1008.7
20260506205338 62 133 1.7 2.6 0.00 0.00 0.00 90 1008.7
20260506204858 62 124 2.6 4.3 0.00 0.00 0.00 90 1008.8
20260506204425 62 99 0.0 3.5 0.00 0.00 0.00 91 1008.8
20260506203950 63 105 0.9 2.6 0.00 0.00 0.00 91 1008.7
20260506203550 63 103 0.0 2.6 0.00 0.00 0.00 91 1008.6
20260506203105 63 106 0.0 0.9 0.00 0.00 0.00 91 1008.7
20260506202635 63 103 0.0 1.7 0.00 0.00 0.00 91 1008.3
20260506202210 63 93 0.9 1.7 0.00 0.00 0.00 91 1008.5
20260506201758 63 100 0.0 1.7 0.00 0.00 0.00 91 1008.3
20260506201345 63 140 1.7 3.5 0.00 0.00 0.00 91 1008.2
20260506200945 63 114 0.0 2.6 0.00 0.00 0.00 91 1008.1
20260506200525 63 106 0.9 1.7 0.00 0.00 0.00 90 1008.0
20260506200100 63 129 1.7 3.5 0.00 0.00 0.00 90 1008.0
20260506195648 63 101 0.0 1.7 0.00 0.00 0.00 90 1007.8
20260506195245 63 137 2.6 4.3 0.00 0.00 0.00 90 1007.9
20260506194825 63 123 1.7 2.6 0.00 0.00 0.00 89 1007.8
20260506194330 63 129 1.7 2.6 0.00 0.00 0.00 89 1007.6
20260506193915 63 128 0.0 1.7 0.00 0.00 0.00 89 1007.6
20260506193455 63 163 3.5 4.3 0.00 0.00 0.00 89 1007.5
20260506193048 63 105 1.7 4.3 0.00 0.00 0.00 88 1007.5
20260506192550 63 115 1.7 2.6 0.00 0.00 0.00 88 1007.4
20260506192100 64 108 0.0 2.6 0.00 0.00 0.00 87 1007.4
20260506191610 64 110 0.0 2.6 0.00 0.00 0.00 87 1007.4
20260506191120 64 135 1.7 2.6 0.00 0.00 0.00 86 1007.4
20260506190645 64 108 0.0 2.6 0.00 0.00 0.00 86 1007.4
20260506190215 64 97 0.0 1.7 0.00 0.00 0.00 86 1007.2
20260506185755 64 78 0.9 3.5 0.00 0.00 0.00 85 1007.2
20260506185258 64 102 0.9 3.5 0.00 0.00 0.00 84 1007.2
20260506184848 65 84 1.7 3.5 0.00 0.00 0.00 83 1007.0
20260506184405 65 118 0.9 4.3 0.00 0.00 0.00 81 1007.0
20260506183925 66 89 2.6 4.3 0.00 0.00 0.00 78 1006.8
20260506183500 66 109 1.7 2.6 0.00 0.00 0.00 76 1007.0
20260506183025 66 77 1.7 3.5 0.00 0.00 0.00 75 1006.8
20260506182619 66 88 0.9 3.5 0.00 0.00 0.00 75 1006.9
20260506182125 66 120 1.7 2.6 0.00 0.00 0.00 76 1006.8
20260506181635 66 115 3.5 4.3 0.00 0.00 0.00 77 1006.7
20260506181157 66 88 4.3 5.2 0.00 0.00 0.00 77 1006.6
20260506180725 67 125 2.6 7.0 0.00 0.00 0.00 75 1006.7
20260506180245 70 23 2.6 5.2 0.00 0.00 0.00 70 1006.5
20260506175830 72 83 0.9 1.7 0.00 0.00 0.00 57 1006.7
20260506175328 71 108 0.0 2.6 0.00 0.00 0.00 55 1006.5
20260506174850 72 108 0.9 3.5 0.00 0.00 0.00 52 1006.7
20260506174407 73 103 0.0 2.6 0.00 0.00 0.00 53 1006.7
20260506173940 73 111 0.9 2.6 0.00 0.00 0.00 49 1006.8
20260506173450 72 130 1.7 3.5 0.00 0.00 0.00 48 1006.7
20260506172954 72 151 5.2 7.8 0.00 0.00 0.00 47 1006.6
20260506172525 72 146 2.6 4.3 0.00 0.00 0.00 52 1006.5
20260506172030 72 118 2.6 4.3 0.00 0.00 0.00 54 1006.6
20260506171610 72 116 1.7 3.5 0.00 0.00 0.00 54 1006.7
20260506171145 73 103 0.0 3.5 0.00 0.00 0.00 47 1006.8
20260506170718 73 154 0.9 2.6 0.00 0.00 0.00 51 1006.6
20260506170305 73 145 1.7 5.2 0.00 0.00 0.00 46 1007.0
20260506165830 73 143 6.1 7.8 0.00 0.00 0.00 42 1006.8
20260506165425 73 109 0.0 4.3 0.00 0.00 0.00 39 1006.9
20260506164945 73 171 3.5 5.2 0.00 0.00 0.00 37 1006.8
20260506164500 73 169 5.2 7.8 0.00 0.00 0.00 36 1007.1
20260506164027 73 134 3.5 7.8 0.00 0.00 0.00 37 1006.7
20260506163605 74 152 6.1 7.8 0.00 0.00 0.00 38 1006.8
20260506163145 74 110 5.2 7.0 0.00 0.00 0.00 40 1006.8
20260506162710 75 135 1.7 3.5 0.00 0.00 0.00 36 1006.7
20260506162307 73 139 2.6 4.3 0.00 0.00 0.00 37 1007.0
20260506161905 73 145 3.5 4.3 0.00 0.00 0.00 38 1006.8
20260506161440 74 180 5.2 7.8 0.00 0.00 0.00 35 1006.8
20260506161005 74 126 1.7 5.2 0.00 0.00 0.00 34 1006.9
20260506160545 74 150 5.2 9.6 0.00 0.00 0.00 37 1006.9
20260506160050 75 148 2.6 4.3 0.00 0.00 0.00 38 1007.1
20260506155605 75 124 1.7 7.0 0.00 0.00 0.00 35 1007.1
20260506155110 74 170 2.6 7.0 0.00 0.00 0.00 36 1006.9
20260506154655 74 141 1.7 8.7 0.00 0.00 0.00 36 1007.1
20260506154207 74 196 2.6 3.5 0.00 0.00 0.00 34 1007.0
20260506153805 74 144 2.6 7.0 0.00 0.00 0.00 37 1007.0
20260506153310 75 126 3.5 8.7 0.00 0.00 0.00 41 1007.1
20260506152845 74 149 0.9 4.3 0.00 0.00 0.00 36 1007.2
20260506152425 74 96 3.5 4.3 0.00 0.00 0.00 37 1007.1
20260506151945 74 132 1.7 4.3 0.00 0.00 0.00 38 1007.2
20260506151500 74 127 5.2 5.2 0.00 0.00 0.00 34 1007.2
20260506151020 73 139 3.5 7.8 0.00 0.00 0.00 36 1007.4
20260506150620 73 139 4.3 7.8 0.00 0.00 0.00 40 1007.4
20260506150145 72 139 3.5 5.2 0.00 0.00 0.00 44 1007.5
20260506145740 72 123 2.6 5.2 0.00 0.00 0.00 44 1007.4
20260506145255 72 161 2.6 5.2 0.00 0.00 0.00 41 1007.4
20260506144850 72 167 1.7 7.0 0.00 0.00 0.00 42 1007.6
20260506144435 72 116 0.9 5.2 0.00 0.00 0.00 42 1007.7
20260506143935 73 157 3.5 7.8 0.00 0.00 0.00 45 1007.6
20260506143447 73 145 3.5 7.8 0.00 0.00 0.00 42 1007.9
20260506143005 73 145 2.6 4.3 0.00 0.00 0.00 45 1007.8
20260506142515 74 159 3.5 5.2 0.00 0.00 0.00 40 1007.7
20260506142055 75 118 3.5 7.8 0.00 0.00 0.00 41 1008.1
20260506141700 75 103 1.7 4.3 0.00 0.00 0.00 41 1007.9
20260506141253 73 149 4.3 8.7 0.00 0.00 0.00 42 1007.8
20260506140810 73 146 4.3 8.7 0.00 0.00 0.00 43 1007.9
20260506140325 74 152 2.6 7.0 0.00 0.00 0.00 43 1007.9
20260506135840 75 144 0.9 5.2 0.00 0.00 0.00 44 1007.9
20260506135435 74 194 1.7 8.7 0.00 0.00 0.00 44 1008.0
20260506135015 74 151 1.7 7.0 0.00 0.00 0.00 46 1007.9
20260506134520 74 121 2.6 7.0 0.00 0.00 0.00 46 1008.1
20260506134040 73 156 5.2 11.3 0.00 0.00 0.00 46 1008.0
20260506133220 75 120 5.2 8.7 0.00 0.00 0.00 43 1008.0
20260506132725 74 153 4.3 7.0 0.00 0.00 0.00 42 1008.1
20260506132300 75 218 5.2 7.0 0.00 0.00 0.00 43 1008.0
20260506131840 74 149 2.6 7.0 0.00 0.00 0.00 44 1007.9
20260506131340 74 108 3.5 5.2 0.00 0.00 0.00 41 1008.1
20260506130915 75 132 2.6 8.7 0.00 0.00 0.00 40 1008.0
20260506130455 75 198 3.5 9.6 0.00 0.00 0.00 39 1008.0
20260506130020 75 136 5.2 7.0 0.00 0.00 0.00 41 1008.0
20260506125535 73 180 3.5 11.3 0.00 0.00 0.00 39 1008.2
20260506125110 74 151 2.6 7.8 0.00 0.00 0.00 39 1008.2
20260506124640 74 209 3.5 7.0 0.00 0.00 0.00 40 1008.1
20260506124200 73 112 4.3 7.0 0.00 0.00 0.00 39 1008.1
20260506123735 73 159 5.2 7.8 0.00 0.00 0.00 45 1008.2
20260506123240 73 211 2.6 3.5 0.00 0.00 0.00 44 1008.5
20260506122840 72 145 2.6 7.0 0.00 0.00 0.00 46 1008.3
20260506122430 72 126 5.2 7.8 0.00 0.00 0.00 46 1008.5
20260506122025 73 170 5.2 8.7 0.00 0.00 0.00 42 1008.2
20260506121530 73 151 5.2 8.7 0.00 0.00 0.00 43 1008.5
20260506121125 72 88 2.6 4.3 0.00 0.00 0.00 43 1008.6
20260506120710 72 169 5.2 7.0 0.00 0.00 0.00 42 1008.6
20260506120240 72 133 2.6 8.7 0.00 0.00 0.00 43 1008.7
20260506115840 71 151 7.0 9.6 0.00 0.00 0.00 41 1008.8
20260506115415 72 149 3.5 7.0 0.00 0.00 0.00 43 1008.6
20260506114945 71 143 4.3 8.7 0.00 0.00 0.00 44 1008.7
20260506114455 71 137 1.7 9.6 0.00 0.00 0.00 43 1008.7
20260506114000 71 134 2.6 7.0 0.00 0.00 0.00 41 1008.8
20260506113520 72 197 3.5 5.2 0.00 0.00 0.00 40 1008.6
20260506113040 72 195 3.5 5.2 0.00 0.00 0.00 40 1008.7
20260506112635 71 140 3.5 7.0 0.00 0.00 0.00 40 1008.6
20260506112155 71 187 3.5 8.7 0.00 0.00 0.00 40 1008.9
20260506111720 72 113 3.5 7.0 0.00 0.00 0.00 39 1008.8
20260506111240 71 128 3.5 7.8 0.00 0.00 0.00 38 1008.8
20260506110830 71 120 1.7 7.0 0.00 0.00 0.00 39 1008.8
20260506110345 71 180 2.6 5.2 0.00 0.00 0.00 40 1008.8
20260506105930 71 179 3.5 7.8 0.00 0.00 0.00 41 1008.9
20260506105505 71 128 0.9 7.0 0.00 0.00 0.00 42 1008.8
20260506105040 71 125 2.6 7.8 0.00 0.00 0.00 41 1008.6
20260506104550 71 184 4.3 7.8 0.00 0.00 0.00 41 1008.8
20260506104105 72 111 0.0 4.3 0.00 0.00 0.00 41 1009.0
20260506103615 71 140 4.3 5.2 0.00 0.00 0.00 42 1008.9
20260506103210 71 183 4.3 5.2 0.00 0.00 0.00 43 1008.9
20260506102745 69 105 1.7 4.3 0.00 0.00 0.00 48 1008.9
20260506102251 69 119 0.9 7.0 0.00 0.00 0.00 47 1009.1
20260506101753 70 150 3.5 7.8 0.00 0.00 0.00 46 1009.0
20260506101315 69 142 2.6 7.0 0.00 0.00 0.00 47 1008.9
20260506100900 69 129 4.3 7.0 0.00 0.00 0.00 48 1009.0
20260506100455 68 161 2.6 5.2 0.00 0.00 0.00 49 1009.1
20260506100035 68 176 4.3 7.0 0.00 0.00 0.00 53 1008.9
20260506095610 68 184 2.6 5.2 0.00 0.00 0.00 56 1009.0
20260506095201 68 125 4.3 7.0 0.00 0.00 0.00 58 1008.9
20260506094751 67 146 5.2 8.7 0.00 0.00 0.00 57 1009.0
20260506094340 67 149 6.1 7.8 0.00 0.00 0.00 55 1009.0
20260506093855 68 147 5.2 7.8 0.00 0.00 0.00 52 1008.9
20260506093441 69 143 5.2 7.0 0.00 0.00 0.00 51 1009.0
20260506092950 70 124 1.7 4.3 0.00 0.00 0.00 47 1009.0
20260506092021 69 137 3.5 7.0 0.00 0.00 0.00 51 1009.0
20260506091540 70 106 2.6 3.5 0.00 0.00 0.00 46 1008.8
20260506091105 69 145 1.7 5.2 0.00 0.00 0.00 48 1008.9
20260506090605 69 112 0.9 3.5 0.00 0.00 0.00 47 1009.0
20260506090128 69 122 0.9 4.3 0.00 0.00 0.00 47 1008.9
20260506085650 70 114 2.6 4.3 0.00 0.00 0.00 46 1009.0
20260506085240 70 137 0.0 3.5 0.00 0.00 0.00 46 1009.0
20260506084800 70 118 1.7 4.3 0.00 0.00 0.00 46 1009.0
20260506084330 69 129 0.9 1.7 0.00 0.00 0.00 50 1009.0
20260506083850 68 110 0.9 7.0 0.00 0.00 0.00 50 1009.0
20260506083445 68 113 3.5 7.8 0.00 0.00 0.00 52 1008.9
20260506083030 68 145 3.5 4.3 0.00 0.00 0.00 49 1009.0
20260506082555 67 134 0.9 4.3 0.00 0.00 0.00 52 1008.9
20260506082110 68 133 3.5 4.3 0.00 0.00 0.00 53 1008.8
20260506081705 67 146 2.6 3.5 0.00 0.00 0.00 53 1008.9
20260506081225 67 143 7.0 9.6 0.00 0.00 0.00 55 1008.8
20260506080745 67 141 3.5 7.8 0.00 0.00 0.00 54 1008.9
20260506080315 68 140 7.0 8.7 0.00 0.00 0.00 53 1008.7
20260506073203 68 329 5.2 11.3 0.00 0.00 0.00 43 1008.3
20260506072730 68 315 7.0 11.3 0.00 0.00 0.00 43 1008.3
20260506072245 68 325 7.0 9.6 0.00 0.00 0.00 44 1008.1
20260506071835 68 251 3.5 7.8 0.00 0.00 0.00 44 1008.1
20260506071345 67 231 5.2 11.3 0.00 0.00 0.00 45 1008.5
20260506070935 67 133 4.3 11.3 0.00 0.00 0.00 45 1008.1
20260506070455 67 257 5.2 8.7 0.00 0.00 0.00 45 1008.2
20260506062430 66 197 3.5 9.6 0.00 0.00 0.00 47 1008.1
20260506061940 66 316 6.1 14.8 0.00 0.00 0.00 48 1008.1
20260506061510 66 144 3.5 9.6 0.00 0.00 0.00 48 1008.1
20260506061055 66 285 5.2 10.4 0.00 0.00 0.00 48 1008.2
20260506060645 66 235 3.5 7.0 0.00 0.00 0.00 48 1008.0
20260506060216 65 286 5.2 9.6 0.00 0.00 0.00 48 1008.1
20260506051340 65 294 5.2 8.7 0.00 0.00 0.00 49 1008.0
20260506050905 64 325 3.5 9.6 0.00 0.00 0.00 50 1008.0
20260506050411 65 233 7.0 10.4 0.00 0.00 0.00 50 1007.9
20260506045020 64 359 3.5 8.7 0.00 0.00 0.00 51 1008.0
20260506044550 64 324 2.6 12.2 0.00 0.00 0.00 50 1007.7
20260506044105 64 187 4.3 7.8 0.00 0.00 0.00 50 1008.0
20260506043635 64 270 5.2 7.0 0.00 0.00 0.00 50 1007.7
20260506043230 64 251 3.5 10.4 0.00 0.00 0.00 51 1007.9